Regional Weather Roundup
Issued by NWS

Home | Current Version | Previous Version | Text Only | Print | Product List | Glossary Off
Versions: 1 2 3 4 5 6 7 8 9 10 11 12 13 14 15 16 17 18 19 20 21 22 23 24 25 26 27 28 29 30 31 32 33 34 35 36 37 38 39 40 41 42 43 44 45 46 47 48 49 50

000
ASUS43 KOAX 250910
RWRNE

WEATHER ROUNDUP FOR NEBRASKA
NATIONAL WEATHER SERVICE OMAHA NE
400 AM CDT SAT OCT 25 2014

NOTES: SATELLITE DATA IS BEING USED TO AUGMENT CLOUD COVER ABOVE
       12000 FEET.
       "FAIR" INDICATES FEW OR NO CLOUDS BELOW 12,000 FEET WITH NO
       SIGNIFICANT WEATHER AND/OR OBSTRUCTIONS TO VISIBILITY.

  * THESE STATIONS DO NOT REPORT WEATHER SUCH AS RAIN...SNOW OR FOG.

NEZ001>004-019>022-054>056-251000-
NEBRASKA PANHANDLE

CITY           SKY/WX    TMP DP  RH WIND       PRES   REMARKS
SCOTTSBLUFF    CLEAR     40  32  73 N6        30.14S
ALLIANCE       CLEAR     31  28  89 W8        30.15R WCI  23
CHADRON        CLEAR     33  31  92 W6        30.17R WCI  28
KIMBALL        CLEAR     39  29  66 NW6       30.17S WCI  35
SIDNEY         CLEAR     43  31  62 W7        30.15F
$$

NEZ057>060-069>072-079>082-251000-
SOUTHWEST NEBRASKA

CITY           SKY/WX    TMP DP  RH WIND       PRES   REMARKS
NORTH PLATTE   CLEAR     40  34  79 CALM      30.08F
IMPERIAL       CLEAR     43  33  68 CALM      30.09S
LEXINGTON      CLEAR     40  38  89 NW3       30.06S
MCCOOK         CLEAR     43  35  73 CALM      30.07S
OGALLALA       CLEAR     41  36  82 W5        30.10S
$$

NEZ005>010-023>029-035>040-094-251000-
NORTH CENTRAL NEBRASKA

CITY           SKY/WX    TMP DP  RH WIND       PRES   REMARKS
VALENTINE      CLEAR     51  35  54 NE13      30.13R
AINSWORTH      CLEAR     45  34  65 CALM      30.12R
BROKEN BOW     CLEAR     42  38  85 N5        30.07S
O`NEILL        CLEAR     50  41  71 N9        30.11R
ORD            CLEAR     37  36  96 NW6       30.07R WCI  32
THEDFORD       CLEAR     39  34  82 CALM      30.10S
$$

NEZ041-046>049-061>064-073>077-083>087-251000-
SOUTH CENTRAL NEBRASKA

CITY           SKY/WX    TMP DP  RH WIND       PRES   REMARKS
GRAND ISLAND   CLEAR     44  41  89 N7        30.05F
AURORA         CLEAR     47  44  87 NW5       30.05S
HASTINGS         N/A     49  43  80 CALM      30.05S
HEBRON         CLEAR     46  44  92 CALM      30.04S
HOLDREGE       CLEAR     43  40  89 CALM      30.06S
KEARNEY *      CLEAR     45  39  81 NW8       30.06S
YORK           CLEAR     46  45  93 CALM      30.06S FOG
$$

NEZ011>018-030>034-042>045-251000-
NORTHEAST NEBRASKA

CITY           SKY/WX    TMP DP  RH WIND       PRES   REMARKS
NORFOLK        CLEAR     45  41  86 W6        30.07R
ALBION         CLEAR     41  38  87 NW5       30.07S
BLAIR          CLEAR     56  45  66 N7        30.02R
COLUMBUS *     CLEAR     45  39  81 NW7       30.07R
FREMONT        CLEAR     48  46  92 NW5       30.04R
TEKAMAH        CLEAR     47  44  90 NW5       30.04R
WAYNE          CLEAR     42  40  93 CALM      30.07R
$$

NEZ050>053-065>068-078-088>093-251000-
SOUTHEAST NEBRASKA

CITY           SKY/WX    TMP DP  RH WIND       PRES   REMARKS
LINCOLN        CLEAR     46  45  96 CALM      30.05R
OMAHA EPPLEY   CLEAR     49  48  97 NW3       30.03S
BEATRICE       CLEAR     46  45  97 CALM      30.04R
FALLS CITY     FOG       51  50  96 NW3       30.02S VSB 1/4
NEBRASKA CITY  CLEAR     57  47  67 N3        30.02S
PLATTSMOUTH    CLEAR     54  48  81 NW3       30.02S
$$

NEZ044-045-051>053-067-251000-
OMAHA AREA

CITY           SKY/WX    TMP DP  RH WIND       PRES   REMARKS
OMAHA EPPLEY   CLEAR     49  48  97 NW3       30.03S
BLAIR          CLEAR     56  45  66 N7        30.02R
FREMONT        CLEAR     48  46  92 NW5       30.04R
MILLARD        CLEAR     49  48  95 CALM      30.02S
OFFUTT AFB     CLEAR     47  47 100 NW2       30.01S FOG
PLATTSMOUTH    CLEAR     54  48  81 NW3       30.02S
WAHOO          FAIR      49  45  86 W5        30.03S
$$



USA.gov is the U.S. government's official web portal to all federal, state and local government web resources and services.